[[{"header":{"parameterUnit":"m.s-1","parameterCategory":1,"la1":30.2991,"la2":30.254,"lo1":-89.0895,"lo2":-89.0444,"dy":0.0017,"dx":0.0017,"nx":28,"ny":28,"refTime":"2025-08-20T03:00:00:Z","depth":0,"parameterNumber":2,"parameterNumberName":"U-component_of_WINDS"},"data":[0,0,0,0,0,0,0,0,0,0,0,0,0,0,0,0,0,0,0,0,0,0,0,0,0,0,0,0,0,0,0,0,0,0,0,0,0,0,0,0,0,0,0,0,0,0,0,0,0,0,0,0,0,0,0,0,0,0,1.2519,1.252,0,1.2614,1.2616,1.2617,1.2641,1.2641,1.264,1.264,1.2737,1.274,1.2743,0,0,0,0,0,0,0,0,0,0,0,0,0,1.2355,1.2358,1.2519,1.252,1.2521,1.2614,1.2616,1.2617,1.2641,1.2641,1.264,1.2639,1.2736,1.2739,1.2743,0,0,0,0,0,0,0,0,0,0,0,0,0,1.2436,1.2359,1.2518,1.2545,1.2548,1.2614,1.2616,1.2617,1.2642,1.2641,1.264,1.2639,1.2734,1.2739,1.2744,1.279,0,0,1.2758,1.276,0,0,0,0,0,0,0,0,1.2431,1.2442,1.2539,1.2543,1.2547,1.2615,1.2593,1.2675,1.2642,1.2606,1.264,1.2639,1.2697,1.2705,1.2724,1.2795,1.2799,1.2758,1.2761,1.2763,1.2765,0,0,0,0,0,0,0,1.2425,1.2438,1.2556,1.2541,1.2545,1.2551,1.2561,1.2609,1.2655,1.2609,1.2611,1.2622,1.2699,1.272,1.2727,1.28,1.2758,1.2762,1.2765,1.2767,1.2912,1.2913,0,0,0,0,0,0,1.2416,1.2433,1.2553,1.2559,1.2486,1.2554,1.2566,1.2594,1.2655,1.2663,1.2623,1.2623,1.2712,1.2721,1.273,1.2788,1.2763,1.2768,1.277,1.2911,1.2912,1.2913,0,0,0,0,0,0,1.2412,1.2426,1.255,1.2497,1.2513,1.2558,1.2589,1.2596,1.2618,1.2665,1.2673,1.2636,1.2712,1.2724,1.2775,1.2792,1.277,1.2774,1.291,1.2911,1.2913,1.2903,0,0,0,0,0,0,1.2407,1.2425,1.2443,1.2497,1.2516,1.2593,1.259,1.2599,1.2626,1.2627,1.268,1.2688,1.2712,1.2768,1.278,1.2798,1.2778,1.2908,1.291,1.2912,1.2902,1.2905,1.2906,0,0,0,0,0,1.2401,1.2437,1.2444,1.2459,1.254,1.2594,1.2604,1.2632,1.2627,1.2646,1.2676,1.2686,1.2788,1.2773,1.2786,1.2806,1.2908,1.291,1.2912,1.2902,1.2904,1.2906,0,0,0,0,0,0,1.2384,1.2445,1.2453,1.2508,1.2545,1.2598,1.2622,1.2634,1.2674,1.2673,1.2706,1.2717,1.2766,1.2791,1.2773,1.2853,1.2848,1.2853,1.2835,1.2838,1.284,1.2832,1.2782,0,0,0,0,0,1.2387,1.2426,1.2476,1.2519,1.2538,1.2577,1.2601,1.2619,1.266,1.2676,1.271,1.2748,1.2789,1.2815,1.2855,1.2906,1.2918,1.2927,1.2928,1.293,1.2934,1.2961,1.2965,1.2921,1.2921,1.2921,0,0,1.2392,1.243,1.2453,1.2517,1.2548,1.2587,1.259,1.2632,1.2661,1.2682,1.2732,1.2758,1.2803,1.2854,1.2878,1.2877,1.2948,1.2933,1.2933,1.2937,1.2964,1.2968,1.2972,1.2923,1.2922,1.2922,0,0,1.2422,1.2455,1.2494,1.2525,1.2573,1.2599,1.2608,1.2659,1.2677,1.2728,1.2744,1.2779,1.2848,1.2879,1.2904,1.2944,1.2954,1.2957,1.2966,1.2993,1.2996,1.2999,1.3012,1.3017,1.296,1.296,1.296,0,1.2423,1.2483,1.2512,1.2553,1.258,1.2601,1.264,1.2669,1.2727,1.2745,1.2742,1.2829,1.2861,1.2919,1.2928,1.2948,1.2959,1.295,1.2993,1.2997,1.3,1.3013,1.3018,1.296,1.296,1.296,1.296,0,1.2481,1.2522,1.2548,1.2603,1.2633,1.2673,1.2707,1.2734,1.2749,1.2774,1.2825,1.2864,1.2912,1.2927,1.2942,1.2987,1.2984,1.2987,1.2982,1.3004,1.3016,1.3022,1.296,1.296,1.296,1.296,0,0,1.2503,1.2573,1.2582,1.2607,1.2661,1.2693,1.2733,1.2779,1.2801,1.284,1.2874,1.2931,1.2934,1.2962,1.2981,1.3005,1.3033,1.3005,1.3006,1.3008,1.3082,1.3079,1.3084,1.304,1.3041,1.3042,1.3078,0,1.2538,1.2611,1.2638,1.2697,1.2735,1.2755,1.279,1.2826,1.285,1.2885,1.2912,1.2952,1.2954,1.2971,1.2995,1.3024,1.3048,1.3022,1.307,1.3072,1.3057,1.3091,1.3088,1.312,1.3083,1.3084,1.3085,0,1.259,1.2629,1.2692,1.274,1.2757,1.2787,1.2832,1.2865,1.2906,1.2922,1.2953,1.297,1.3012,1.3004,1.3061,1.3043,1.3064,1.3081,1.3083,1.3088,1.3079,1.3096,1.3131,1.3136,1.3093,1.3092,1.3092,0,1.2598,1.2667,1.2713,1.2734,1.2791,1.2812,1.2836,1.2877,1.2903,1.2941,1.2958,1.3001,1.3024,1.3056,1.3084,1.3077,1.3138,1.3133,1.3152,1.3151,1.3163,1.3162,1.3202,1.3179,1.3179,1.3178,1.3178,0,1.2634,1.2671,1.2717,1.2745,1.2787,1.2818,1.2858,1.2884,1.2919,1.2952,1.2972,1.3003,1.3038,1.3073,1.3095,1.3138,1.3149,1.3162,1.3167,1.316,1.3158,1.3174,1.3172,1.318,1.318,1.3179,1.3179,0,1.265,1.2682,1.2733,1.2783,1.2797,1.2825,1.2868,1.2895,1.2921,1.2962,1.2973,1.3013,1.3054,1.3086,1.314,1.3155,1.32,1.3206,1.3186,1.3189,1.3205,1.3202,1.3255,1.3263,1.3236,1.3236,1.3236,0,1.267,1.2699,1.2752,1.2776,1.2801,1.2839,1.2865,1.2896,1.2923,1.2971,1.2992,1.3035,1.3071,1.3137,1.317,1.3211,1.3218,1.3233,1.3224,1.3215,1.3217,1.3214,1.3216,1.3234,1.3234,1.3235,1.3235,0,1.2703,1.2717,1.2755,1.2798,1.2829,1.2865,1.29,1.2918,1.2955,1.2984,1.3027,1.3055,1.3109,1.3152,1.3196,1.3221,1.3233,1.3237,1.3244,1.3236,1.3223,1.3229,1.3188,1.3236,1.3236,1.3236,1.3236,1.3236,1.2721,1.2748,1.2789,1.283,1.286,1.2892,1.292,1.2949,1.2985,1.3033,1.3049,1.3092,1.3131,1.3192,1.3217,1.3252,1.3252,1.3261,1.3263,1.3265,1.3263,1.3218,1.326,1.326,1.326,1.326,1.326,0,1.2754,1.2781,1.2819,1.2868,1.29,1.291,1.2949,1.2975,1.3013,1.3049,1.3084,1.3132,1.3173,1.3209,1.3251,1.3272,1.3278,1.3281,1.328,1.3285,1.3262,1.3252,1.3275,1.3275,1.3275,1.3275,1.3275,1.3275,1.2775,1.2819,1.2838,1.2898,1.2925,1.2968,1.299,1.3019,1.3048,1.3101,1.3135,1.3158,1.3194,1.3239,1.3276,1.3285,1.3299,1.3301,1.3312,1.3289,1.3287,1.3285,1.3276,1.3304,1.3304,1.3332,1.3332,1.3333]},{"header":{"parameterUnit":"m.s-1","parameterCategory":1,"la1":30.2991,"la2":30.254,"lo1":-89.0895,"lo2":-89.0444,"dy":0.0017,"dx":0.0017,"nx":28,"ny":28,"refTime":"2025-08-20T03:00:00:Z","depth":0,"parameterNumber":3,"parameterNumberName":"V-component_of_WINDS"},"data":[0,0,0,0,0,0,0,0,0,0,0,0,0,0,0,0,0,0,0,0,0,0,0,0,0,0,0,0,0,0,0,0,0,0,0,0,0,0,0,0,0,0,0,0,0,0,0,0,0,0,0,0,0,0,0,0,0,0,4.419,4.4189,0,4.4111,4.411,4.4109,4.4031,4.403,4.4029,4.4028,4.3943,4.3941,4.394,0,0,0,0,0,0,0,0,0,0,0,0,0,4.4268,4.4267,4.419,4.4189,4.4188,4.4111,4.411,4.4109,4.4031,4.403,4.4029,4.4028,4.3943,4.3941,4.394,0,0,0,0,0,0,0,0,0,0,0,0,0,4.4216,4.4267,4.419,4.414,4.4135,4.4112,4.411,4.4109,4.4032,4.403,4.4029,4.4027,4.3944,4.3942,4.394,4.3958,0,0,4.3934,4.3933,0,0,0,0,0,0,0,0,4.4219,4.4213,4.4148,4.4143,4.4138,4.408,4.4106,4.4058,4.4032,4.4071,4.4028,4.4026,4.3989,4.3983,4.3972,4.3954,4.395,4.3933,4.3932,4.3931,4.3931,0,0,0,0,0,0,0,4.4223,4.4216,4.4159,4.4147,4.4141,4.412,4.4111,4.4097,4.4039,4.4067,4.4061,4.4053,4.3986,4.3974,4.3969,4.3949,4.3933,4.3932,4.393,4.393,4.394,4.3941,0,0,0,0,0,0,4.4235,4.422,4.4161,4.4156,4.4176,4.412,4.411,4.41,4.4039,4.4029,4.4055,4.405,4.3978,4.3971,4.3966,4.3982,4.3931,4.3929,4.3928,4.3938,4.394,4.3942,0,0,0,0,0,0,4.4237,4.423,4.4164,4.4186,4.4176,4.412,4.4109,4.4099,4.4087,4.403,4.4019,4.4053,4.3976,4.3969,4.396,4.3978,4.3929,4.3927,4.3937,4.3939,4.3941,4.4015,0,0,0,0,0,0,4.4239,4.4231,4.4239,4.4187,4.4176,4.4162,4.4111,4.4098,4.4084,4.4077,4.4026,4.4016,4.3975,4.3964,4.3958,4.3974,4.3925,4.3935,4.3938,4.394,4.4011,4.4019,4.4027,0,0,0,0,0,4.4242,4.4262,4.424,4.4233,4.4184,4.4163,4.4156,4.411,4.4086,4.4092,4.4055,4.4017,4.3977,4.3964,4.3957,4.3972,4.3934,4.3937,4.394,4.4007,4.4018,4.4027,0,0,0,0,0,0,4.4316,4.4254,4.4229,4.4233,4.4204,4.415,4.4157,4.4123,4.4099,4.4094,4.4036,4.4025,4.4023,4.3997,4.3983,4.3986,4.395,4.3952,4.4003,4.4012,4.402,4.4026,4.3924,0,0,0,0,0,4.4333,4.4323,4.4269,4.4278,4.4265,4.4214,4.4203,4.417,4.4137,4.4124,4.4086,4.4054,4.4034,4.4022,4.4,4.4007,4.3993,4.4014,4.4022,4.4029,4.4031,4.403,4.4038,4.3953,4.3953,4.3953,0,0,4.4367,4.4333,4.4329,4.4292,4.4265,4.4254,4.4204,4.4194,4.4185,4.4122,4.4112,4.4083,4.4043,4.4042,4.404,4.402,4.4052,4.4033,4.4039,4.4037,4.4034,4.4043,4.405,4.3955,4.3955,4.3954,0,0,4.4424,4.4398,4.4401,4.4376,4.4338,4.4304,4.4305,4.4256,4.4235,4.4224,4.4176,4.4163,4.4131,4.4104,4.4086,4.4133,4.4096,4.4127,4.4169,4.4169,4.4176,4.4181,4.4196,4.4202,4.4129,4.413,4.413,0,4.4471,4.4454,4.4407,4.4401,4.4385,4.4329,4.4331,4.4308,4.4264,4.4254,4.4233,4.419,4.4159,4.415,4.4162,4.415,4.4147,4.4132,4.4179,4.4184,4.4188,4.4202,4.4208,4.4134,4.4133,4.4133,4.4132,0,4.4513,4.4502,4.451,4.447,4.4455,4.4453,4.4404,4.4394,4.4362,4.433,4.4319,4.428,4.4249,4.4245,4.4213,4.4231,4.422,4.419,4.4152,4.4201,4.4213,4.4218,4.4139,4.4138,4.4137,4.4136,0,0,4.4614,4.4548,4.4552,4.4532,4.4486,4.4475,4.447,4.4441,4.4433,4.4404,4.4397,4.437,4.4342,4.4322,4.4287,4.4288,4.4325,4.4257,4.4255,4.4269,4.4339,4.4361,4.4368,4.4301,4.4301,4.4302,4.4342,0,4.4661,4.465,4.4607,4.4608,4.4596,4.4543,4.4538,4.4508,4.4477,4.4461,4.4426,4.4408,4.4373,4.436,4.4358,4.4321,4.4338,4.4317,4.4291,4.429,4.4301,4.4374,4.4397,4.4437,4.4346,4.4347,4.4347,0,4.4715,4.4691,4.4692,4.4645,4.4638,4.4635,4.4604,4.459,4.4554,4.4532,4.4509,4.4471,4.446,4.4426,4.4409,4.4397,4.4383,4.4363,4.4363,4.4357,4.4321,4.4369,4.4448,4.4454,4.4354,4.4354,4.4353,0,4.4786,4.4754,4.475,4.4735,4.4681,4.4679,4.4656,4.4619,4.4604,4.4577,4.4566,4.4538,4.4522,4.45,4.4454,4.4434,4.4441,4.4404,4.442,4.4421,4.4423,4.4423,4.4499,4.4417,4.4417,4.4417,4.4417,0,4.4843,4.4845,4.4781,4.4778,4.4778,4.4728,4.4729,4.47,4.4667,4.4656,4.4608,4.4599,4.4539,4.4522,4.4485,4.4476,4.4469,4.4449,4.4439,4.4452,4.4455,4.4442,4.4437,4.4418,4.4418,4.4418,4.4417,0,4.4922,4.488,4.4871,4.4821,4.4808,4.481,4.4765,4.4759,4.4726,4.4713,4.4707,4.4654,4.4631,4.4583,4.4547,4.4522,4.4521,4.4504,4.4534,4.4527,4.4545,4.4543,4.4614,4.462,4.4536,4.4537,4.4538,0,4.496,4.496,4.491,4.4901,4.488,4.4864,4.4849,4.48,4.4786,4.4744,4.4743,4.4717,4.4693,4.4659,4.4616,4.4587,4.4568,4.4595,4.4564,4.4577,4.4567,4.4567,4.4565,4.4602,4.4603,4.4604,4.4605,0,4.5032,4.5011,4.4992,4.4966,4.495,4.4927,4.49,4.4894,4.4838,4.4824,4.4802,4.4783,4.4747,4.4721,4.4686,4.4659,4.4622,4.4616,4.4617,4.463,4.4647,4.4636,4.4551,4.4614,4.4613,4.4612,4.4612,4.4611,4.509,4.5088,4.5052,4.5032,4.5008,4.4984,4.4976,4.4942,4.4923,4.4891,4.4862,4.4842,4.4803,4.4753,4.4729,4.471,4.4692,4.4695,4.4696,4.4697,4.4702,4.4651,4.4704,4.4704,4.4703,4.4703,4.4703,0,4.5158,4.5133,4.5116,4.5081,4.5065,4.5034,4.5003,4.4991,4.4974,4.4943,4.4921,4.4894,4.4868,4.4823,4.4793,4.4787,4.4768,4.478,4.4779,4.4773,4.4721,4.4722,4.4795,4.4795,4.4795,4.4795,4.4795,4.4795,4.5192,4.5185,4.516,4.514,4.5114,4.5095,4.508,4.5057,4.5032,4.5004,4.4983,4.4955,4.4917,4.4884,4.4858,4.4845,4.4836,4.4852,4.4834,4.4786,4.4777,4.4769,4.4769,4.4851,4.4851,4.4887,4.4888,4.4888]}]]